EW9027 Weather Reports


time (UTC)temp
C
wind
direction
speed
KPH
gust
KPH
rain 1hr
cm
rain 24hr
cm
rain mn
cm
humidity
%
barometer
mb
20260505060036 16 164 3.2 6.4 0.00 0.00 0.00 53 1008.6
20260505054557 15 170 0.0 4.8 0.00 0.00 0.00 57 1008.8
20260505053035 14 214 0.0 1.6 0.00 0.00 0.00 59 1008.8
20260505051534 13 203 0.0 3.2 0.00 0.00 0.00 62 1008.9
20260505041529 10 195 0.0 3.2 0.00 0.00 0.00 75 1008.9
20260505040029 10 262 0.0 1.6 0.00 0.00 0.00 74 1008.7
20260505034528 11 199 0.0 3.2 0.00 0.00 0.00 73 1008.6
20260505033027 10 258 0.0 3.2 0.00 0.00 0.00 74 1008.6
20260505031539 11 44 0.0 1.6 0.00 0.00 0.00 74 1008.7
20260505030022 11 39 0.0 1.6 0.00 0.00 0.00 71 1008.9
20260505024532 11 46 1.6 3.2 0.00 0.00 0.00 71 1009.0
20260505023017 11 214 0.0 0.0 0.00 0.00 0.00 72 1009.1
20260505021518 12 214 0.0 1.6 0.00 0.00 0.00 71 1009.3
20260505020025 12 304 0.0 1.6 0.00 0.00 0.00 67 1009.4
20260505014512 12 38 0.0 3.2 0.00 0.00 0.00 69 1009.5
20260505013009 12 23 0.0 3.2 0.00 0.00 0.00 70 1009.7
20260505011508 12 232 0.0 1.6 0.00 0.00 0.00 69 1009.9
20260505010005 12 231 0.0 3.2 0.00 0.00 0.00 67 1009.8
20260505004502 13 223 0.0 3.2 0.00 0.00 0.00 65 1009.9
20260505003058 13 205 0.0 1.6 0.00 0.00 0.00 65 1010.1
20260505001559 13 257 0.0 1.6 0.00 0.00 0.00 63 1010.5
20260505000113 14 254 0.0 1.6 0.00 0.00 0.00 61 1010.6
20260504234550 15 252 0.0 1.6 0.00 0.00 0.00 59 1010.9
20260504233048 15 251 0.0 1.6 0.00 0.00 0.00 57 1010.9
20260504231546 16 54 0.0 3.2 0.00 0.00 0.00 55 1010.9
20260504230100 16 76 0.0 3.2 0.00 0.00 0.00 51 1011.1
20260504224541 16 258 0.0 1.6 0.00 0.00 0.00 56 1011.1
20260504223039 17 257 0.0 1.6 0.00 0.00 0.00 55 1011.1
20260504221549 17 227 0.0 4.8 0.00 0.00 0.00 47 1011.3
20260504220034 16 229 0.0 1.6 0.00 0.00 0.00 58 1011.2
20260504214535 17 229 0.0 1.6 0.00 0.00 0.00 55 1011.2
20260504213034 17 257 0.0 1.6 0.00 0.00 0.00 49 1011.1
20260504211530 17 283 0.0 3.2 0.00 0.00 0.00 48 1011.1
20260504210030 16 259 0.0 1.6 0.00 0.00 0.00 56 1011.3
20260504204529 16 269 0.0 1.6 0.00 0.00 0.00 56 1011.3
20260504203030 16 269 0.0 3.2 0.00 0.00 0.00 57 1011.3
20260504201529 17 311 0.0 1.6 0.00 0.00 0.00 55 1011.2
20260504200028 17 22 0.0 1.6 0.00 0.00 0.00 57 1011.3
20260504194528 17 320 0.0 1.6 0.00 0.00 0.00 56 1011.5
20260504193028 18 93 0.0 1.6 0.00 0.00 0.00 55 1011.6
20260504191526 18 94 0.0 1.6 0.00 0.00 0.00 50 1011.5
20260504190026 19 108 0.0 1.6 0.00 0.00 0.00 50 1011.4
20260504184525 20 160 0.0 4.8 0.00 0.00 0.00 50 1011.2
20260504183025 20 113 0.0 4.8 0.00 0.00 0.00 50 1011.0
20260504181528 20 112 0.0 4.8 0.00 0.00 0.00 51 1011.1
20260504180023 21 96 1.6 4.8 0.00 0.00 0.00 51 1011.1
20260504174523 21 56 1.6 4.8 0.00 0.00 0.00 47 1011.1
20260504173022 22 102 1.6 6.4 0.00 0.00 0.00 44 1011.1
20260504171522 22 60 3.2 6.4 0.00 0.00 0.00 42 1011.2
20260504081521 17 219 1.6 4.8 0.00 0.00 0.00 53 1014.6